Location: Unspecified
(51.0000°N, 12.0000°E)
Time: 23:56:52
(UTC+01:00)

ISS - Pass Details

Date: 04 December 2020
Orbit: 418 x 419 km, 51.6° (Epoch: 18 January)

Event Time Altitude Azimuth Distance (km) Brightness Sun altitude
Rises 18:09:04 0° 285° (WNW) 2,371 1.2 -18.2°
Reaches altitude 10° 18:11:12 10° 280° (W) 1,504 0.1 -18.5°
Maximum altitude 18:14:29 50° 204° (SSW) 544 -3.0 -19.0°
Enters shadow 18:15:24 37° 155° (SSE) 671 -2.9 -19.2°
